Date String (YYYY-MM-DD hh:mm:ss) UTC,Instrument flags,Ambient pressure (hPa),Sample flow (lpm),Bypass flow (lpm),Sample temperature (°C),Ambient temperature (°C),ASC tube jacket temperature (°C),LED temperature (°C),Box temperature (°C),Sample RH (%),Span deviation,Mass concentration (μg/m³),Mass concentration (μg/m³),Mass concentration (μg/m³)
DateTimeUTC,F1_M11,P_M11,Q1_M11,Q2_M11,T1_M11,T2_M11,T3_M11,T4_M11,T5_M11,U1_M11,ZSPAN_M11,X2_M11,X0_M11,X1_M11
2021-10-18 07:00:00,,0823.7,5.00,0.00,29.8,28.8,00.0,39.0,31.5,08.8,0000.0,0002.56,0005.32,0001.98
2021-10-18 07:01:00,,0823.7,5.00,0.00,29.8,28.8,00.0,39.0,31.5,08.8,0000.0,0002.58,0005.41,0001.99
2021-10-18 07:02:00,,0823.7,5.00,0.00,29.8,28.8,00.0,39.0,31.5,08.8,0000.0,0002.56,0006.07,0002.01
2021-10-18 07:03:00,,0823.6,4.99,0.00,29.8,28.8,00.0,39.0,31.5,08.9,0000.0,0002.64,0006.36,0002.08
2021-10-18 07:04:00,,0823.6,5.00,0.00,29.8,28.8,00.0,39.0,31.5,08.9,0000.0,0002.78,0006.49,0002.15
2021-10-18 07:05:00,,0823.5,5.00,0.00,29.8,28.8,00.0,39.0,31.5,08.9,0000.0,0002.80,0006.11,0002.19
2021-10-18 07:06:00,,0823.4,5.01,0.00,29.8,28.8,00.0,39.0,31.5,08.9,0000.0,0002.76,0005.90,0002.15
2021-10-18 07:07:00,,0823.4,5.00,0.00,29.8,28.8,00.0,39.0,31.5,09.0,0000.0,0002.71,0005.91,0002.11
2021-10-18 07:08:00,,0823.4,5.00,0.00,29.8,28.8,00.0,39.0,31.5,09.0,0000.0,0002.67,0005.78,0002.11
2021-10-18 07:09:00,,0823.4,4.99,0.00,29.8,28.8,00.0,39.0,31.5,09.0,0000.0,0002.80,0006.07,0002.17
2021-10-18 07:10:00,,0823.3,5.01,0.00,29.8,28.8,00.0,39.0,31.5,09.0,0000.0,0002.84,0006.10,0002.22
2021-10-18 07:11:00,,0823.3,5.02,0.00,29.8,28.8,00.0,39.0,31.5,09.1,0000.0,0002.86,0006.22,0002.23
2021-10-18 07:12:00,,0823.3,5.00,0.00,29.8,28.8,00.0,39.0,31.5,09.0,0000.0,0002.89,0006.62,0002.28
2021-10-18 07:13:00,,0823.3,4.99,0.00,29.8,28.8,00.0,39.0,31.5,09.0,0000.0,0002.94,0006.31,0002.33
2021-10-18 07:14:00,,0823.3,5.01,0.00,29.8,28.8,00.0,39.0,31.4,09.1,0000.0,0002.94,0006.15,0002.31
2021-10-18 07:15:00,,0823.3,5.00,0.00,29.8,28.7,00.0,39.0,31.5,09.0,0000.0,0002.83,0006.05,0002.26
2021-10-18 07:16:00,,0823.3,4.99,0.00,29.8,28.8,00.0,39.0,31.5,09.0,0000.0,0002.73,0005.58,0002.22
2021-10-18 07:17:00,,0823.3,5.00,0.00,29.8,28.8,00.0,39.0,31.5,09.0,0000.0,0002.80,0005.21,0002.25
2021-10-18 07:18:00,,0823.3,5.01,0.00,29.8,28.8,00.0,38.9,31.5,09.0,0000.0,0002.89,0005.28,0002.28
2021-10-18 07:19:00,,0823.3,5.00,0.00,29.8,28.8,00.0,38.9,31.5,09.0,0000.0,0002.96,0005.56,0002.31
2021-10-18 07:20:00,,0823.3,5.01,0.00,29.8,28.8,00.0,38.9,31.5,09.0,0000.0,0002.98,0005.62,0002.33
2021-10-18 07:21:00,,0823.3,4.98,0.00,29.8,28.8,00.0,38.9,31.5,09.0,0000.0,0003.06,0005.93,0002.37
2021-10-18 07:22:00,,0823.4,5.01,0.00,29.8,28.8,00.0,38.9,31.5,09.1,0000.0,0003.16,0006.30,0002.41
2021-10-18 07:23:00,,0823.3,5.00,0.00,29.8,28.8,00.0,38.9,31.5,09.1,0000.0,0003.20,0006.10,0002.40
2021-10-18 07:24:00,,0823.4,5.01,0.00,29.8,28.8,00.0,38.9,31.5,09.1,0000.0,0003.21,0006.09,0002.39
2021-10-18 07:25:00,,0823.4,4.99,0.00,29.8,28.8,00.0,38.9,31.5,09.0,0000.0,0003.25,0006.07,0002.42
2021-10-18 07:26:00,,0823.4,5.00,0.00,29.8,28.8,00.0,38.9,31.5,09.0,0000.0,0003.28,0006.06,0002.43
2021-10-18 07:27:00,,0823.3,5.00,0.00,29.8,28.8,00.0,38.9,31.5,09.0,0000.0,0003.31,0006.73,0002.43
2021-10-18 07:28:00,,0823.3,5.01,0.00,29.8,28.8,00.0,38.9,31.5,09.0,0000.0,0003.30,0007.02,0002.41
2021-10-18 07:29:00,,0823.2,5.00,0.00,29.8,28.8,00.0,38.9,31.5,09.0,0000.0,0003.26,0007.06,0002.39
2021-10-18 07:30:00,,0823.3,5.00,0.00,29.8,28.8,00.0,38.9,31.5,09.0,0000.0,0003.25,0006.91,0002.38
2021-10-18 07:31:00,,0823.3,4.99,0.00,29.8,28.8,00.0,38.9,31.5,09.0,0000.0,0003.25,0006.84,0002.37
2021-10-18 07:32:00,,0823.4,5.01,0.00,29.8,28.8,00.0,38.9,31.5,09.0,0000.0,0003.26,0007.14,0002.38
2021-10-18 07:33:00,,0823.4,4.99,0.00,29.8,28.8,00.0,38.9,31.5,09.0,0000.0,0003.25,0007.86,0002.39
2021-10-18 07:34:00,,0823.4,5.02,0.00,29.8,28.8,00.0,38.9,31.4,09.1,0000.0,0003.24,0007.80,0002.43
2021-10-18 07:35:00,,0823.4,5.01,0.00,29.8,28.8,00.0,38.9,31.5,09.1,0000.0,0003.23,0007.75,0002.44
2021-10-18 07:36:00,,0823.3,5.01,0.00,29.8,28.8,00.0,38.9,31.5,09.1,0000.0,0003.21,0007.65,0002.43
2021-10-18 07:37:00,,0823.3,5.01,0.00,29.8,28.8,00.0,38.9,31.5,09.0,0000.0,0003.20,0007.81,0002.44
2021-10-18 07:38:00,,0823.3,5.01,0.00,29.8,28.8,00.0,38.9,31.5,09.0,0000.0,0003.21,0007.81,0002.46
2021-10-18 07:39:00,,0823.3,5.00,0.00,29.8,28.8,00.0,38.9,31.5,09.0,0000.0,0003.23,0007.61,0002.48
2021-10-18 07:40:00,,0823.3,5.00,0.00,29.8,28.8,00.0,38.9,31.5,09.0,0000.0,0003.26,0007.70,0002.50
2021-10-18 07:41:00,,0823.2,5.01,0.00,29.8,28.8,00.0,38.9,31.5,09.0,0000.0,0003.28,0007.86,0002.51
2021-10-18 07:42:00,,0823.2,5.01,0.00,29.8,28.8,00.0,38.9,31.4,09.0,0000.0,0003.27,0007.85,0002.51
2021-10-18 07:43:00,,0823.2,4.99,0.00,29.8,28.8,00.0,38.9,31.5,09.0,0000.0,0003.25,0007.75,0002.52
2021-10-18 07:44:00,,0823.2,5.01,0.00,29.7,28.8,00.0,38.9,31.5,09.0,0000.0,0003.20,0006.52,0002.51
2021-10-18 07:45:00,,0823.2,4.99,0.00,29.7,28.8,00.0,38.9,31.5,09.0,0000.0,0003.19,0007.39,0002.48
2021-10-18 07:46:00,,0823.2,5.00,0.00,29.8,28.8,00.0,38.9,31.5,09.0,0000.0,0003.21,0007.53,0002.47
2021-10-18 07:47:00,,0823.2,5.00,0.00,29.8,28.8,00.0,38.9,31.5,08.9,0000.0,0003.20,0007.59,0002.44
2021-10-18 07:48:00,,0823.2,4.99,0.00,29.8,28.8,00.0,38.9,31.5,08.9,0000.0,0003.19,0007.68,0002.40
2021-10-18 07:49:00,,0823.2,5.00,0.00,29.8,28.8,00.0,38.9,31.5,08.9,0000.0,0003.16,0008.39,0002.35
2021-10-18 07:50:00,,0823.1,5.00,0.00,29.8,28.8,00.0,38.9,31.5,08.9,0000.0,0003.09,0008.16,0002.30
2021-10-18 07:51:00,,0823.2,4.99,0.00,29.8,28.8,00.0,38.9,31.5,08.9,0000.0,0003.00,0008.14,0002.26
2021-10-18 07:52:00,,0823.2,5.00,0.00,29.8,28.9,00.0,38.9,31.5,08.9,0000.0,0003.00,0008.22,0002.23
2021-10-18 07:53:00,,0823.2,5.01,0.00,29.8,28.8,00.0,38.9,31.5,08.9,0000.0,0002.96,0008.20,0002.20
2021-10-18 07:54:00,,0823.2,5.01,0.00,29.8,28.9,00.0,38.9,31.5,09.0,0000.0,0002.95,0008.34,0002.16
2021-10-18 07:55:00,,0823.1,5.00,0.00,29.8,28.8,00.0,38.9,31.5,09.0,0000.0,0002.94,0008.54,0002.13
2021-10-18 07:56:00,,0823.1,4.99,0.00,29.8,28.8,00.0,38.9,31.5,09.0,0000.0,0002.96,0008.03,0002.11
2021-10-18 07:57:00,,0823.1,5.01,0.00,29.8,28.8,00.0,38.9,31.5,08.9,0000.0,0002.96,0007.99,0002.09
2021-10-18 07:58:00,,0823.1,5.00,0.00,29.8,28.9,00.0,38.9,31.5,08.9,0000.0,0002.91,0007.91,0002.08
2021-10-18 07:59:00,,0823.1,4.99,0.00,29.8,28.9,00.0,38.9,31.5,09.0,0000.0,0002.92,0007.77,0002.10
